Perry, FL

8:52 AM EDT on June 22, 2017 (GMT -0400)
Perry

Weather History for K40J - May, 2014

Change the Weather History Date:

Friday, May 16, 2014

  Actual Average (KVLD) Record (KVLD)
Temperature  
Mean Temperature 62 °F -  
Max Temperature 77 °F 85 °F 95 °F (2001)
Min Temperature 48 °F 60 °F 50 °F (2006)
Degree Days  
Heating Degree Days 2    
Growing Degree Days 12 (Base 50)    
Moisture  
Dew Point 50 °F    
Average Humidity 70    
Maximum Humidity 100    
Minimum Humidity 32    
Precipitation  
Precipitation 0.00 in - - ()
Sea Level Pressure  
Sea Level Pressure 30.11 in    
Wind  
Wind Speed 6 mph (NW)    
Max Wind Speed 15 mph    
Max Gust Speed 23 mph    
Visibility 10 miles    
Events      
Averages and records for this station are not official NWS values.
T = Trace of Precipitation, MM = Missing Value Source: NWS Daily Summary

Daily Weather History Graph

Daily Weather History Graph

Search for Another Location

Airport or City:

Trip Planner

Search our weather history database for the weather conditions in past years. The results will help you decide how hot, cold, wet, or windy it might be!

Date:

Astronomy

May. 16, 2014 Rise Set
Actual Time 6:40 AM EDT 8:21 PM EDT
Civil Twilight 6:13 AM EDT 8:47 PM EDT
Nautical Twilight 5:42 AM EDT 9:19 PM EDT
Astronomical Twilight 5:09 AM EDT 9:52 PM EDT
Moon 10:27 PM EDT (5/16) 8:20 AM EDT (5/16)
Length of Visible Light 14h 33m
Length of Day
13h 41m
Waning Gibbous, 95% of the Moon is Illuminated
May 16
Waning Gibbous
May 21
Last Quarter
May 28
New
Jun 5
First Quarter
Jun 13
Full

Hourly Weather History & Observations

Time (EDT) Temp. Dew Point Humidity Pressure Visibility Wind Dir Wind Speed Gust Speed Precip Events Conditions
12:15 AM 59.0 °F 59.0 °F 100% 30.08 in 10.0 mi NW 9.2 mph - N/A   Clear
12:35 AM 59.0 °F 57.2 °F 94% 30.08 in 10.0 mi NW 5.8 mph - N/A   Clear
12:55 AM 55.4 °F 55.4 °F 100% 30.08 in 10.0 mi NW 5.8 mph - N/A   Clear
1:15 AM 55.4 °F 55.4 °F 100% 30.08 in 10.0 mi NW 5.8 mph - N/A   Clear
1:35 AM 55.4 °F 55.4 °F 100% 30.08 in 10.0 mi NW 6.9 mph - N/A   Clear
1:55 AM 55.4 °F 55.4 °F 100% 30.08 in 10.0 mi NNW 4.6 mph - N/A   Clear
2:15 AM 53.6 °F 53.6 °F 100% 30.08 in 10.0 mi NW 3.5 mph - N/A   Clear
2:35 AM 53.6 °F 53.6 °F 100% 30.08 in 10.0 mi Calm Calm - N/A   Clear
2:55 AM 53.6 °F 53.6 °F 100% 30.08 in 10.0 mi Calm Calm - N/A   Clear
3:15 AM 51.8 °F 51.8 °F 100% 30.07 in 10.0 mi Calm Calm - N/A   Clear
3:35 AM 50.0 °F 50.0 °F 100% 30.07 in 10.0 mi Calm Calm - N/A   Clear
3:55 AM 51.8 °F 51.8 °F 100% 30.08 in 10.0 mi Calm Calm - N/A   Clear
4:15 AM 50.0 °F 50.0 °F 100% 30.08 in 10.0 mi NW 5.8 mph - N/A   Clear
4:35 AM 50.0 °F 50.0 °F 100% 30.09 in 10.0 mi NW 4.6 mph - N/A   Clear
4:55 AM 50.0 °F 50.0 °F 100% 30.09 in 10.0 mi NW 4.6 mph - N/A   Clear
5:15 AM 50.0 °F 50.0 °F 100% 30.10 in 10.0 mi WNW 4.6 mph - N/A   Clear
5:35 AM 50.0 °F 50.0 °F 100% 30.10 in 10.0 mi NW 4.6 mph - N/A   Clear
5:55 AM 50.0 °F 50.0 °F 100% 30.11 in 10.0 mi NW 4.6 mph - N/A   Clear
6:15 AM 50.0 °F 50.0 °F 100% 30.11 in 10.0 mi Calm Calm - N/A   Clear
6:35 AM 50.0 °F 50.0 °F 100% 30.12 in 10.0 mi Calm Calm - N/A   Clear
6:55 AM 48.2 °F 48.2 °F 100% 30.12 in 10.0 mi Calm Calm - N/A   Clear
7:15 AM 50.0 °F 50.0 °F 100% 30.12 in 10.0 mi Calm Calm - N/A   Clear
7:35 AM 50.0 °F 50.0 °F 100% 30.12 in 10.0 mi Calm Calm - N/A   Clear
7:55 AM 51.8 °F 51.8 °F 100% 30.12 in 10.0 mi Calm Calm - N/A   Clear
8:15 AM 53.6 °F 53.6 °F 100% 30.13 in 10.0 mi Calm Calm - N/A   Clear
8:35 AM 55.4 °F 55.4 °F 100% 30.13 in 10.0 mi NW 3.5 mph - N/A   Clear
8:55 AM 57.2 °F 53.6 °F 88% 30.13 in 10.0 mi NNW 5.8 mph - N/A   Clear
9:15 AM 59.0 °F 51.8 °F 77% 30.14 in 10.0 mi NNW 9.2 mph - N/A   Clear
9:35 AM 60.8 °F 50.0 °F 68% 30.15 in 10.0 mi NNW 6.9 mph - N/A   Clear
9:55 AM 62.6 °F 46.4 °F 55% 30.15 in 10.0 mi North 11.5 mph 16.1 mph N/A   Clear
10:15 AM 64.4 °F 46.4 °F 52% 30.15 in 10.0 mi North 13.8 mph 19.6 mph N/A   Clear
10:35 AM 64.4 °F 44.6 °F 49% 30.15 in 10.0 mi North 10.4 mph 19.6 mph N/A   Clear
10:55 AM 66.2 °F 46.4 °F 49% 30.16 in 10.0 mi NNW 13.8 mph 19.6 mph N/A   Clear
11:15 AM 68.0 °F 46.4 °F 46% 30.16 in 10.0 mi NW 11.5 mph - N/A   Clear
11:35 AM 68.0 °F 44.6 °F 43% 30.16 in 10.0 mi NNW 11.5 mph 17.3 mph N/A   Clear
11:55 AM 69.8 °F 44.6 °F 40% 30.16 in 10.0 mi NNW 11.5 mph 17.3 mph N/A   Clear
12:15 PM 69.8 °F 46.4 °F 43% 30.15 in 10.0 mi NW 9.2 mph - N/A   Clear
12:35 PM 71.6 °F 46.4 °F 41% 30.15 in 10.0 mi NNW 9.2 mph - N/A   Clear
12:55 PM 71.6 °F 44.6 °F 38% 30.15 in 10.0 mi North 9.2 mph - N/A   Clear
1:15 PM 71.6 °F 42.8 °F 35% 30.15 in 10.0 mi NW 15.0 mph 23.0 mph N/A   Clear
1:35 PM 71.6 °F 44.6 °F 38% 30.14 in 10.0 mi WNW 12.7 mph - N/A   Clear
1:55 PM 73.4 °F 44.6 °F 36% 30.13 in 10.0 mi WNW 11.5 mph 20.7 mph N/A   Clear
2:15 PM 73.4 °F 46.4 °F 38% 30.12 in 10.0 mi NNW 9.2 mph - N/A   Clear
2:35 PM 73.4 °F 44.6 °F 36% 30.12 in 10.0 mi NNW 12.7 mph 17.3 mph N/A   Clear
2:55 PM 73.4 °F 44.6 °F 36% 30.11 in 10.0 mi NW 10.4 mph 16.1 mph N/A   Clear
3:15 PM 73.4 °F 44.6 °F 36% 30.10 in 10.0 mi NNW 9.2 mph - N/A   Clear
3:40 PM 75.2 °F 44.6 °F 34% 30.10 in 10.0 mi NNW 8.1 mph 18.4 mph N/A   Clear
4:15 PM 77.0 °F 46.4 °F 34% 30.09 in 10.0 mi NNW 8.1 mph 17.3 mph N/A   Clear
4:35 PM 77.0 °F 46.4 °F 34% 30.08 in 10.0 mi North 9.2 mph - N/A   Clear
4:55 PM 77.0 °F 46.4 °F 34% 30.08 in 10.0 mi WNW 10.4 mph - N/A   Clear
5:15 PM 77.0 °F 46.4 °F 34% 30.08 in 10.0 mi WNW 11.5 mph - N/A   Clear
5:35 PM 77.0 °F 44.6 °F 32% 30.07 in 10.0 mi NNW 10.4 mph 18.4 mph N/A   Clear
5:55 PM 77.0 °F 44.6 °F 32% 30.08 in 10.0 mi NW 9.2 mph 17.3 mph N/A   Clear
6:15 PM 77.0 °F 44.6 °F 32% 30.08 in 10.0 mi NW 10.4 mph 18.4 mph N/A   Clear
6:35 PM 75.2 °F 44.6 °F 34% 30.08 in 10.0 mi NW 10.4 mph - N/A   Clear
6:55 PM 75.2 °F 44.6 °F 34% 30.08 in 10.0 mi NW 8.1 mph - N/A   Clear
7:15 PM 73.4 °F 46.4 °F 38% 30.08 in 10.0 mi NNW 5.8 mph - N/A   Clear
7:35 PM 73.4 °F 46.4 °F 38% 30.08 in 10.0 mi NW 6.9 mph - N/A   Clear
7:55 PM 71.6 °F 48.2 °F 43% 30.08 in 10.0 mi NW 4.6 mph - N/A   Clear
8:15 PM 71.6 °F 48.2 °F 43% 30.09 in 10.0 mi NW 3.5 mph - N/A   Clear
8:35 PM 68.0 °F 51.8 °F 56% 30.10 in 10.0 mi Calm Calm - N/A   Clear
8:55 PM 64.4 °F 53.6 °F 68% 30.10 in 10.0 mi Calm Calm - N/A   Clear
9:15 PM 64.4 °F 53.6 °F 68% 30.11 in 10.0 mi Calm Calm - N/A   Clear
9:35 PM 62.6 °F 53.6 °F 72% 30.12 in 10.0 mi Calm Calm - N/A   Clear
9:55 PM 60.8 °F 55.4 °F 82% 30.13 in 10.0 mi Calm Calm - N/A   Clear
10:15 PM 60.8 °F 55.4 °F 82% 30.13 in 10.0 mi Calm Calm - N/A   Clear
10:35 PM 60.8 °F 59.0 °F 94% 30.15 in 10.0 mi Calm Calm - N/A   Clear
10:55 PM 59.0 °F 59.0 °F 100% 30.15 in 10.0 mi Calm Calm - N/A   Clear
11:15 PM 60.8 °F 57.2 °F 88% 30.15 in 10.0 mi Calm Calm - N/A   Clear
11:35 PM 59.0 °F 59.0 °F 100% 30.15 in 10.0 mi Calm Calm - N/A   Clear
11:55 PM 59.0 °F 59.0 °F 100% 30.16 in 10.0 mi Calm Calm - N/A   Clear